Clifton, OH

12:33 AM EDT on September 26, 2016 (GMT -0400)
Springfield-Beckley Municipal

Weather History for KSGH - November, 2011

Change the Weather History Date:

Friday, November 18, 2011

  Actual Average (KDAY) Record (KDAY)
Temperature  
Mean Temperature 34 °F 42 °F  
Max Temperature 45 °F 50 °F 75 °F (1930)
Min Temperature 22 °F 34 °F 10 °F (2014)
Degree Days  
Heating Degree Days 32 23  
Month to date heating degree days 351  
Since 1 July heating degree days 798  
Cooling Degree Days 0 0  
Month to date cooling degree days 0  
Year to date cooling degree days 891  
Moisture  
Dew Point 17 °F    
Average Humidity 53    
Maximum Humidity 85    
Minimum Humidity 27    
Precipitation  
Precipitation 0.00 in 0.12 in 2.94 in (1938)
Month to date precipitation 1.97  
Year to date precipitation 36.51  
Snow  
Snow 0.00 in 0.00 in 2.70 in (1984)
Month to date snowfall 0.2  
Since 1 July snowfall 0.6  
Since 1 September snowfall 0.6  
Snow Depth -    
Sea Level Pressure  
Sea Level Pressure 30.32 in    
Wind  
Wind Speed 8 mph (South)    
Max Wind Speed 13 mph    
Max Gust Speed 21 mph    
Visibility 10 miles    
Events      
T = Trace of Precipitation, MM = Missing Value Source: NWS Daily Summary

Daily Weather History Graph

Daily Weather History Graph

Search for Another Location

Airport or City:

Trip Planner

Search our weather history database for the weather conditions in past years. The results will help you decide how hot, cold, wet, or windy it might be!

Date:

Astronomy

Nov. 18, 2011 Rise Set
Actual Time 7:23 AM EST 5:17 PM EST
Civil Twilight 6:54 AM EST 5:46 PM EST
Nautical Twilight 6:21 AM EST 6:19 PM EST
Astronomical Twilight 5:49 AM EST 6:51 PM EST
Moon No Moon Rise 1:02 PM EST (11/18)
Length of Visible Light 10h 52m
Length of Day
9h 54m
Waning Gibbous, 49% of the Moon is Illuminated
Nov 18
Waning Gibbous
Nov 25
New
Dec 2
First Quarter
Dec 10
Full
Dec 17
Last Quarter

Hourly Weather History & Observations

Time (EST) Temp. Windchill Dew Point Humidity Pressure Visibility Wind Dir Wind Speed Gust Speed Precip Events Conditions
12:56 AM 23.0 °F 17.0 °F 18.1 °F 82% 30.36 in 10.0 mi SW 4.6 mph - N/A   Clear
1:56 AM 22.1 °F 14.7 °F 18.1 °F 85% 30.37 in 10.0 mi SSW 5.8 mph - N/A   Clear
2:56 AM 24.1 °F 18.2 °F 17.1 °F 75% 30.38 in 10.0 mi SSW 4.6 mph - N/A   Clear
3:56 AM 23.0 °F 15.8 °F 17.1 °F 78% 30.38 in 10.0 mi South 5.8 mph - N/A   Clear
4:56 AM 24.1 °F 17.0 °F 17.1 °F 75% 30.40 in 10.0 mi SSW 5.8 mph - N/A   Clear
5:56 AM 23.0 °F 17.0 °F 16.2 °F 75% 30.41 in 10.0 mi SSW 4.6 mph - N/A   Clear
6:56 AM 24.1 °F 16.0 °F 17.1 °F 75% 30.42 in 10.0 mi SW 6.9 mph - N/A   Clear
7:56 AM 26.1 °F 18.4 °F 17.1 °F 69% 30.43 in 10.0 mi SSW 6.9 mph - N/A   Clear
8:56 AM 31.1 °F 23.1 °F 17.1 °F 56% 30.43 in 10.0 mi SSW 9.2 mph - N/A   Clear
9:56 AM 36.0 °F 28.5 °F 16.2 °F 45% 30.42 in 9.0 mi SSW 10.4 mph - N/A   Clear
10:56 AM 41.0 °F 33.9 °F 14.0 °F 33% 30.40 in 10.0 mi South 12.7 mph 19.6 mph N/A   Clear
11:56 AM 43.9 °F 37.5 °F 12.0 °F 27% 30.38 in 10.0 mi SSW 12.7 mph 19.6 mph N/A   Clear
12:56 PM 43.9 °F 38.3 °F 13.1 °F 29% 30.34 in 10.0 mi South 10.4 mph 20.7 mph N/A   Clear
1:56 PM 45.9 °F 40.0 °F 14.0 °F 28% 30.31 in 10.0 mi SSW 12.7 mph 19.6 mph N/A   Clear
2:56 PM 43.9 °F 37.5 °F 15.1 °F 31% 30.28 in 10.0 mi South 12.7 mph - N/A   Clear
3:56 PM 43.9 °F 37.9 °F 16.2 °F 33% 30.26 in 10.0 mi South 11.5 mph 19.6 mph N/A   Clear
4:56 PM 41.0 °F 35.2 °F 17.1 °F 38% 30.25 in 10.0 mi SSE 9.2 mph - N/A   Scattered Clouds
5:56 PM 38.8 °F 32.1 °F 18.1 °F 43% 30.24 in 10.0 mi South 10.4 mph - N/A   Partly Cloudy
6:56 PM 37.9 °F 32.7 °F 19.0 °F 47% 30.23 in 10.0 mi South 6.9 mph - N/A   Partly Cloudy
7:56 PM 36.0 °F 29.6 °F 19.0 °F 50% 30.22 in 10.0 mi South 8.1 mph - N/A   Clear
8:56 PM 36.0 °F 29.6 °F 19.0 °F 50% 30.20 in 10.0 mi South 8.1 mph - N/A   Clear
9:56 PM 36.0 °F 29.0 °F 19.0 °F 50% 30.18 in 10.0 mi South 9.2 mph - N/A   Clear
10:56 PM 36.9 °F 30.1 °F 19.0 °F 49% 30.18 in 10.0 mi South 9.2 mph - N/A   Clear
11:56 PM 37.9 °F 30.5 °F 19.0 °F 47% 30.16 in 10.0 mi South 11.5 mph - N/A   Clear